GLOBALSTAR M001 1 25162U 98008A 26062.00908479 -.00000065 00000+0 24375-3 0 9999 2 25162 52.0038 299.8928 0002314 81.3392 56.1169 12.38229076275775 GLOBALSTAR M004 1 25163U 98008B 26062.18864439 -.00000072 00000+0 17405-3 0 9990 2 25163 52.0033 343.9895 0003393 135.3668 20.0693 12.63415761294420 GLOBALSTAR M002 1 25164U 98008C 26061.93917095 -.00000073 00000+0 66275-4 0 9991 2 25164 52.0031 311.4263 0000591 262.3860 97.6893 11.61515278214133 GLOBALSTAR M003 1 25165U 98008D 26061.55924637 -.00000191 00000+0 -10829-2 0 9994 2 25165 51.9856 172.8853 0008813 93.1905 280.5233 12.12025690264559 GLOBALSTAR M014 1 25306U 98023A 26061.79852087 -.00000087 00000+0 -18648-3 0 9995 2 25306 51.9811 229.5608 0001949 107.2248 1.1183 11.65484888221329 GLOBALSTAR M006 1 25307U 98023B 26062.06541998 -.00000036 00000+0 80978-3 0 9991 2 25307 51.9938 291.0399 0002445 206.7351 301.6794 11.58177441246827 GLOBALSTAR M015 1 25308U 98023C 26062.15747598 -.00000077 00000+0 -84068-4 0 9997 2 25308 51.9840 41.1458 0012685 176.4335 268.8046 11.48860556223848 GLOBALSTAR M008 1 25309U 98023D 26061.58050514 -.00000083 00000+0 10008-3 0 9997 2 25309 51.9961 168.8968 0002405 16.1271 357.5033 12.36081210269802 GLOBALSTAR M023 1 25621U 99004A 26062.17927723 -.00000119 00000+0 -84253-4 0 9990 2 25621 52.0137 344.7954 0009745 342.9959 167.5293 12.62518030248441 GLOBALSTAR M040 1 25622U 99004B 26062.00177155 -.00000067 00000+0 20711-3 0 9998 2 25622 51.9947 349.8703 0000305 223.1740 217.5431 12.62029251247933 GLOBALSTAR M036 1 25623U 99004C 26062.00312669 -.00000040 00000+0 61659-3 0 9997 2 25623 51.9959 278.1258 0010346 183.2624 325.4553 11.86620180209709 GLOBALSTAR M038 1 25624U 99004D 26062.11859723 -.00000085 00000+0 87079-4 0 9991 2 25624 51.9987 45.8663 0001555 228.8431 210.3445 12.32541765234303 GLOBALSTAR M022 1 25649U 99012A 26062.19228096 -.00000026 00000+0 72509-3 0 9994 2 25649 52.0052 306.8033 0002489 339.3327 200.1709 12.02510430207532 GLOBALSTAR M041 1 25650U 99012B 26061.64938669 -.00000101 00000+0 -20021-3 0 9996 2 25650 52.0002 197.6062 0002192 111.3589 248.7482 11.96684603209226 GLOBALSTAR M046 1 25651U 99012C 26061.70241795 -.00000183 00000+0 -10416-2 0 9997 2 25651 52.0035 248.8314 0002663 61.2436 19.6738 12.09419844214941 GLOBALSTAR M037 1 25652U 99012D 26062.14619726 -.00000108 00000+0 -20449-4 0 9996 2 25652 51.9998 115.4161 0002053 53.5016 352.4518 12.62461930243980 GLOBALSTAR M045 1 25676U 99019A 26062.07756998 -.00000032 00000+0 53935-3 0 9994 2 25676 51.9968 287.3713 0001008 68.3901 97.9416 12.27073597225179 GLOBALSTAR M019 1 25677U 99019B 26062.06232015 -.00000114 00000+0 -25030-3 0 9990 2 25677 51.9877 75.9958 0001712 124.9857 269.0207 12.13886804216585 GLOBALSTAR M044 1 25678U 99019C 26062.17222398 -.00000079 00000+0 58375-4 0 9994 2 25678 51.9976 59.4470 0006225 176.9860 264.3840 11.90262502202164 GLOBALSTAR M042 1 25679U 99019D 26062.09268584 -.00000112 00000+0 -18398-3 0 9992 2 25679 52.0032 40.0458 0003084 109.8465 328.5774 12.22094530216915 GLOBALSTAR M025 1 25770U 99031A 26062.09746177 -.00000069 00000+0 -54930-4 0 9991 2 25770 51.9807 279.4882 0001759 184.7560 346.6381 11.22560551510786 GLOBALSTAR M049 1 25771U 99031B 26062.02744317 -.00000120 00000+0 -19122-2 0 9999 2 25771 51.9909 327.4189 0003384 90.7952 269.3232 11.12122149146227 GLOBALSTAR M047 1 25772U 99031C 26062.06677051 -.00000043 00000+0 74734-3 0 9998 2 25772 51.9840 299.5679 0016414 350.7143 9.3357 11.31932483500421 GLOBALSTAR M052 1 25773U 99031D 26062.02353770 -.00000015 00000+0 17237-2 0 9997 2 25773 51.9863 72.4579 0002572 236.0514 157.4645 11.15063916507387 GLOBALSTAR M035 1 25851U 99037A 26061.66430780 -.00000094 00000+0 -11361-2 0 9996 2 25851 51.9922 198.5315 0013936 45.2710 327.6155 11.04541490124829 GLOBALSTAR M032 1 25852U 99037B 26062.10123681 -.00000027 00000+0 12594-2 0 9990 2 25852 51.9999 4.8941 0012384 243.3689 116.5843 11.19068093163775 GLOBALSTAR M051 1 25853U 99037C 26062.17987009 -.00000056 00000+0 40423-3 0 9995 2 25853 51.9780 136.1036 0000753 130.7723 229.3153 11.42200290161984 GLOBALSTAR M030 1 25854U 99037D 26061.99475345 -.00000099 00000+0 -50406-3 0 9990 2 25854 51.9873 286.1983 0004212 129.9466 230.1721 11.55104172179956 GLOBALSTAR M048 1 25872U 99041A 26062.02326681 -.00000046 00000+0 63881-3 0 9990 2 25872 51.9362 81.5182 0013185 271.9994 109.5378 11.33862627154345 GLOBALSTAR M026 1 25873U 99041B 26062.08990892 .00000043 00000+0 39433-2 0 9999 2 25873 52.0033 312.8157 0002093 357.2788 152.5756 11.06841797177157 GLOBALSTAR M043 1 25874U 99041C 26061.77556447 -.00000078 00000+0 -29568-3 0 9998 2 25874 51.9379 200.0527 0013501 36.5681 112.6284 11.25697800151995 GLOBALSTAR M028 1 25875U 99041D 26062.18569222 -.00000064 00000+0 23016-3 0 9996 2 25875 51.9621 140.7673 0062889 273.6996 85.6675 12.50596774222588 GLOBALSTAR M024 1 25883U 99043A 26061.50800471 -.00000038 00000+0 95284-3 0 9993 2 25883 52.0010 157.7573 0002278 149.0566 224.5424 11.10171932143558 GLOBALSTAR M027 1 25884U 99043B 26061.90895536 -.00000065 00000+0 -58260-4 0 9999 2 25884 52.0186 242.1669 0021923 51.0244 309.2498 11.04373557169821 GLOBALSTAR M054 1 25885U 99043C 26062.16733314 -.00000047 00000+0 62590-3 0 9993 2 25885 52.0171 325.4277 0004095 266.3470 263.4463 11.39224828148564 GLOBALSTAR M053 1 25886U 99043D 26062.11025976 -.00000035 00000+0 99156-3 0 9992 2 25886 51.9978 287.0270 0003722 146.5363 24.9307 11.27670861148656 GLOBALSTAR M058 1 25907U 99049A 26062.15869169 -.00000083 00000+0 17971-4 0 9995 2 25907 51.9935 137.6457 0002260 63.7610 296.3457 11.93208069572451 GLOBALSTAR M050 1 25908U 99049B 26061.68142915 .00000020 00000+0 12266-2 0 9996 2 25908 51.9981 127.2831 0009452 184.1387 350.3880 12.07465255179411 GLOBALSTAR M033 1 25909U 99049C 26061.93742238 -.00000100 00000+0 -74696-4 0 9997 2 25909 51.9944 340.5433 0015010 76.3783 283.8735 12.20304677567334 GLOBALSTAR M055 1 25910U 99049D 26062.11615978 -.00000061 00000+0 28506-3 0 9993 2 25910 52.0048 338.1772 0006688 314.8161 45.2147 12.29441124200130 GLOBALSTAR M057 1 25943U 99058A 26062.04973051 -.00000050 00000+0 38641-3 0 9999 2 25943 52.0013 333.5470 0002210 173.0722 187.0158 12.24834621198650 GLOBALSTAR M059 1 25944U 99058B 26061.64796451 -.00000094 00000+0 -91024-4 0 9996 2 25944 51.9994 227.9433 0001345 111.1841 330.6857 11.99994914605079 GLOBALSTAR M056 1 25945U 99058C 26061.88330461 -.00000082 00000+0 63121-4 0 9991 2 25945 51.9943 222.6368 0000949 31.7192 139.3996 12.04785890193807 GLOBALSTAR M031 1 25946U 99058D 26061.61499529 .00000026 00000+0 11812-2 0 9999 2 25946 51.9947 100.2156 0001051 357.5493 179.7988 12.16049210195988 GLOBALSTAR M039 1 25961U 99062A 26061.76585499 -.00000104 00000+0 -32039-5 0 9995 2 25961 51.9832 201.1224 0002728 182.1001 177.9854 12.62342771212873 GLOBALSTAR M034 1 25962U 99062B 26062.19673359 -.00000076 00000+0 72554-4 0 9999 2 25962 51.9879 58.1035 0014241 170.3022 273.1881 11.79455939168956 GLOBALSTAR M029 1 25963U 99062C 26062.07533047 -.00000058 00000+0 35229-3 0 9993 2 25963 51.9792 114.6016 0002243 254.3949 117.7357 11.99908685200207 GLOBALSTAR M061 1 25964U 99062D 26061.96050992 -.00000061 00000+0 31853-3 0 9997 2 25964 51.9768 246.1930 0006986 92.2749 75.4669 11.76778549151640 GLOBALSTAR M063 1 26081U 00008A 26062.18328387 -.00000064 00000+0 27403-3 0 9990 2 26081 51.9943 149.4615 0005150 94.8384 279.6547 11.86181349188310 GLOBALSTAR M062 1 26082U 00008B 26062.19619443 -.00000009 00000+0 63521-3 0 9998 2 26082 51.9856 54.1008 0007213 307.4796 133.4882 12.43480664528845 GLOBALSTAR M060 1 26083U 00008C 26062.13107538 -.00000104 00000+0 -12821-3 0 9994 2 26083 52.0033 50.9375 0003031 292.2495 146.5209 12.17676056183913 GLOBALSTAR M064 1 26084U 00008D 26061.91696277 -.00000086 00000+0 -42022-4 0 9999 2 26084 52.0006 245.9436 0001642 157.3316 202.7590 11.88542350197860 GLOBALSTAR M065 1 31571U 07020A 26061.67412251 -.00000111 00000+0 -39155-4 0 9990 2 31571 51.9891 159.5037 0010387 158.0158 349.9836 12.62021019866049 GLOBALSTAR M069 1 31573U 07020C 26061.76103578 -.00000116 00000+0 -21479-3 0 9995 2 31573 52.0022 193.3530 0000912 283.6654 228.5271 12.23468773865775 GLOBALSTAR M072 1 31574U 07020D 26062.11721370 -.00000081 00000+0 35252-4 0 9997 2 31574 51.9957 22.6315 0001433 96.5113 346.3511 11.91655942862331 GLOBALSTAR M071 1 31576U 07020F 26061.74801587 -.00000127 00000+0 -34999-3 0 9994 2 31576 52.0043 226.2969 0000270 142.6109 321.6248 12.18266643526453 GLOBALSTAR M067 1 32263U 07048A 26061.94447757 -.00000105 00000+0 -59051-4 0 9998 2 32263 51.9765 358.7758 0001074 147.3797 298.2335 12.40685054841600 GLOBALSTAR M070 1 32264U 07048B 26062.13743134 -.00000077 00000+0 14733-3 0 9993 2 32264 51.9757 59.6239 0000407 61.6269 15.2095 12.62331258846371 GLOBALSTAR M066 1 32265U 07048C 26061.98433012 -.00000104 00000+0 -81734-4 0 9995 2 32265 51.9628 2.7908 0004560 174.3485 262.9620 12.30385718847154 GLOBALSTAR M068 1 32266U 07048D 26061.81895679 -.00000067 00000+0 20561-3 0 9996 2 32266 51.9863 233.8480 0001134 39.3855 69.6765 12.62841966850235 GLOBALSTAR M079 1 37188U 10054A 26062.19161634 -.00000093 00000+0 59385-4 0 9990 2 37188 52.0035 71.3344 0000607 114.5958 323.8166 12.62263848709166 GLOBALSTAR M074 1 37189U 10054B 26062.04637219 -.00000093 00000+0 60338-4 0 9992 2 37189 52.0013 71.0595 0000292 129.5089 247.8290 12.62266337709753 GLOBALSTAR M076 1 37190U 10054C 26062.16472860 -.00000096 00000+0 45458-4 0 9995 2 37190 52.0032 70.8932 0000518 138.6803 296.7644 12.62270416709483 GLOBALSTAR M077 1 37191U 10054D 26062.05980039 -.00000070 00000+0 14446-3 0 9990 2 37191 51.9955 88.7811 0000638 150.9587 234.5988 11.68176324708746 GLOBALSTAR M075 1 37192U 10054E 26062.16885857 -.00000076 00000+0 15745-3 0 9994 2 37192 51.9935 112.9948 0000481 111.7657 282.7921 12.62264778708552 GLOBALSTAR M073 1 37193U 10054F 26062.10011381 -.00000108 00000+0 -24436-4 0 9997 2 37193 52.0080 27.2210 0000518 104.3330 336.5603 12.62269680710536 GLOBALSTAR M083 1 37739U 11033A 26062.21057919 -.00000080 00000+0 13309-3 0 9994 2 37739 51.9882 335.2614 0000753 89.3263 75.4050 12.62267325679564 GLOBALSTAR M088 1 37740U 11033B 26061.94684323 -.00000097 00000+0 36157-4 0 9995 2 37740 52.0195 242.2345 0000861 92.8187 71.7728 12.62262093675077 GLOBALSTAR M091 1 37741U 11033C 26061.70895156 -.00000121 00000+0 -97083-4 0 9992 2 37741 51.9985 206.0803 0000942 96.1589 6.9430 12.62270123675830 GLOBALSTAR M085 1 37742U 11033D 26061.51780694 -.00000096 00000+0 42872-4 0 9998 2 37742 52.0118 157.8610 0000902 104.0180 270.4157 12.62269374676327 GLOBALSTAR M081 1 37743U 11033E 26062.17650395 -.00000100 00000+0 20451-4 0 9991 2 37743 51.9950 158.4125 0000804 119.7782 249.4569 12.62262564676552 GLOBALSTAR M089 1 37744U 11033F 26062.14142468 -.00000073 00000+0 16923-3 0 9993 2 37744 51.9920 112.6995 0000394 155.2700 234.4801 12.62264495677397 GLOBALSTAR M084 1 38040U 11080A 26062.18063042 -.00000099 00000+0 29287-4 0 9995 2 38040 52.0038 340.0063 0000356 81.7582 66.0851 12.62265205655379 GLOBALSTAR M080 1 38041U 11080B 26061.97896900 -.00000089 00000+0 84025-4 0 9999 2 38041 52.0087 342.3017 0000962 56.1764 24.2923 12.62266761655474 GLOBALSTAR M082 1 38042U 11080C 26062.09203088 -.00000064 00000+0 22088-3 0 9996 2 38042 52.0079 297.4489 0001086 69.5680 94.8374 12.62267912656194 GLOBALSTAR M092 1 38043U 11080D 26062.12666058 -.00000105 00000+0 -45217-5 0 9999 2 38043 52.0104 27.7289 0000352 83.3831 358.5234 12.62264170654650 GLOBALSTAR M090 1 38044U 11080E 26062.04042525 -.00000067 00000+0 20363-3 0 9997 2 38044 52.0121 291.5279 0000917 85.7752 82.8926 12.62271591656309 GLOBALSTAR M086 1 38045U 11080F 26062.06270608 -.00000070 00000+0 18587-3 0 9994 2 38045 51.9898 291.5629 0001308 140.0361 24.3320 12.62283316656255 GLOBALSTAR M097 1 39072U 13005A 26061.65951262 -.00000123 00000+0 -10540-3 0 9991 2 39072 52.0030 207.6114 0001060 108.1649 251.9333 12.62284394603455 GLOBALSTAR M093 1 39073U 13005B 26061.63338840 -.00000115 00000+0 -62500-4 0 9996 2 39073 52.0092 200.9993 0001220 108.8631 251.2368 12.62273201603402 GLOBALSTAR M094 1 39074U 13005C 26062.10864951 -.00000078 00000+0 14428-3 0 9999 2 39074 51.9950 113.7780 0000742 116.8571 243.2372 12.62267010605071 GLOBALSTAR M096 1 39075U 13005D 26062.20097472 -.00000102 00000+0 73628-5 0 9994 2 39075 52.0066 162.2129 0000892 108.7396 251.3568 12.62263281604004 GLOBALSTAR M078 1 39076U 13005E 26061.69928769 -.00000096 00000+0 42442-4 0 9990 2 39076 51.9851 247.8979 0001493 61.0466 299.0550 12.62275893602566 GLOBALSTAR M095 1 39077U 13005F 26061.88426866 -.00000097 00000+0 35882-4 0 9994 2 39077 52.0060 244.7887 0001366 84.3550 275.7472 12.62276139602441 GLOBALSTAR M087 1 52888U 22064A 26062.05596850 -.00000106 00000+0 -97079-5 0 9994 2 52888 52.0018 25.5635 0000660 84.9139 275.1803 12.62266769177739